Location: Unspecified
(51.5147°N, 7.4673°E)
Time: 13:37:53
(UTC+01:00)

Explorer 7 - Pass Details

Date: 19 February 2026
Orbit: 430 x 541 km, 50.2° (Epoch: 8 March)

Event Time Altitude Azimuth Distance (km) Brightness Sun altitude
Rises 18:40:37 0° 275° (W) 2,490 12.1 -8.1°
Reaches altitude 10° 18:42:44 10° 272° (W) 1,633 10.9 -8.5°
Maximum altitude 18:46:24 65° 191° (SSW) 538 6.8 -9.0°
Enters shadow 18:50:05 11° 110° (ESE) 1,649 8.7 -9.6°
